This is the latest recevied weather packets stored in our database for station/object AB1AU. If no packets are shown the sender has not sent any weather packets the latest 10 day(s).
| Time | Temp. | Humidity | Pressure | Rain* | Wind** | Luminosity | Snow |
|---|---|---|---|---|---|---|---|
| 1777744067 | 6.67° C | 83% | 1013.9 hPa | 0 mm | - | 66 W/m² | - |
| 1777743765 | 6.67° C | 83% | 1013.9 hPa | 0 mm | - | 47 W/m² | - |
| 1777743461 | 6.67° C | 83% | 1013.8 hPa | 1.78 mm | - | 45 W/m² | - |
| 1777743159 | 6.67° C | 82% | 1013.9 hPa | 1.78 mm | - | 46 W/m² | - |
| 1777742857 | 6.67° C | 82% | 1013.9 hPa | 0 mm | - | 53 W/m² | - |
| 1777742552 | 6.67° C | 82% | 1013.8 hPa | 0 mm | - | 48 W/m² | - |
| 1777742248 | 6.67° C | 82% | 1013.8 hPa | 0 mm | - | 47 W/m² | - |
| 1777741946 | 6.67° C | 82% | 1013.9 hPa | 0 mm | - | 43 W/m² | - |
| 1777741643 | 6.67° C | 81% | 1014 hPa | 0 mm | - | 35 W/m² | - |
| 1777741340 | 6.67° C | 81% | 1014 hPa | 1.27 mm | - | 47 W/m² | - |
| 1777741035 | 6.67° C | 80% | 1013.9 hPa | 1.27 mm | - | 53 W/m² | - |
| 1777740733 | 6.67° C | 79% | 1013.8 hPa | 0 mm | - | 67 W/m² | - |
| 1777740429 | 7.22° C | 80% | 1014.4 hPa | 0 mm | - | 62 W/m² | - |
| 1777740127 | 6.67° C | 79% | 1013.9 hPa | 0 mm | - | 71 W/m² | - |
| 1777739822 | 6.67° C | 80% | 1014.1 hPa | 0 mm | - | 103 W/m² | - |
| 1777739519 | 6.67° C | 81% | 1014.1 hPa | 0 mm | - | 104 W/m² | - |
| 1777739216 | 6.67° C | 81% | 1014.4 hPa | 0 mm | - | 108 W/m² | - |
| 1777738913 | 6.67° C | 82% | 1014.4 hPa | 0 mm | - | 94 W/m² | - |
| 1777738610 | 6.67° C | 83% | 1014.4 hPa | 0 mm | - | 87 W/m² | - |
| 1777738306 | 6.67° C | 82% | 1014.6 hPa | 0 mm | - | 90 W/m² | - |
| 1777738004 | 6.67° C | 82% | 1014.7 hPa | 0 mm | - | 63 W/m² | - |
| 1777737703 | 6.67° C | 81% | 1014.7 hPa | 0 mm | - | 86 W/m² | - |
| 1777737401 | 6.67° C | 81% | 1014.6 hPa | 0 mm | - | 86 W/m² | - |
| 1777737098 | 6.67° C | 80% | 1014.5 hPa | 0 mm | - | 97 W/m² | - |
| 1777736794 | 6.67° C | 80% | 1014.8 hPa | 1.78 mm | - | 92 W/m² | - |
* Rain latest hour (hover to see other rain measurements)
** Current wind speed in m/s (hover to see current wind gust speed)